Location: Montreal
(45.5000°N, 73.5833°W)
Time: 20:11:47
(UTC-05:00)

Vanguard 1 - All Passes

Search period start: 17 December 2017 00:00
Search period end: 27 December 2017 00:00
Orbit: 650 x 3834 km, 34.2° (Epoch: 16 December)

Date Brightness Start Highest point End Pass type
(mag) Time Alt. Az. Time Alt. Az. Time Alt. Az.
17 Dec - 04:45:33 10° SSE 04:58:27 18° SE 05:10:39 10° E visible
17 Dec - 07:01:12 10° SSW 07:21:41 41° SSE 07:37:32 10° E daylight
17 Dec - 09:24:41 10° WSW 09:45:51 55° S 09:59:04 10° ESE daylight
17 Dec - 11:51:31 10° W 12:08:37 48° SSW 12:18:23 10° SE daylight
17 Dec - 14:19:40 10° W 14:28:27 21° SW 14:34:30 10° S daylight
18 Dec - 05:03:08 10° S 05:19:04 24° SE 05:33:53 10° E visible
18 Dec - 07:21:23 10° SW 07:42:45 46° SSE 07:58:50 10° E daylight
18 Dec - 09:45:53 10° WSW 10:06:59 56° S 10:19:56 10° ESE daylight
18 Dec - 12:13:06 10° W 12:29:23 43° SSW 12:38:49 10° SE daylight
18 Dec - 14:42:26 10° W 14:48:36 15° SW 14:53:21 10° SSW daylight
19 Dec - 05:21:47 10° SSW 05:39:46 30° SE 05:56:12 10° E visible
19 Dec - 07:41:54 10° SW 08:03:51 51° SSE 08:19:59 10° E daylight
19 Dec - 10:07:13 10° WSW 10:28:05 56° S 10:40:44 10° ESE daylight
19 Dec - 12:34:47 10° W 12:49:59 37° SSW 12:59:04 10° SSE daylight
20 Dec - 03:30:11 10° SSE 03:38:11 13° SE 03:46:18 10° ESE visible
20 Dec - 05:41:09 10° SSW 06:00:33 37° SE 06:18:02 10° E visible
20 Dec - 08:02:41 10° WSW 08:25:01 55° SSE 08:41:04 10° E daylight
20 Dec - 10:28:39 10° W 10:49:08 55° SSW 11:01:27 10° ESE daylight
20 Dec - 12:56:36 10° W 13:10:26 31° SW 13:19:05 10° SSE daylight
21 Dec - 03:45:46 10° SSE 03:58:32 19° SE 04:11:38 10° E visible
21 Dec - 06:00:58 10° SSW 06:21:27 43° SSE 06:39:35 10° E visible
21 Dec - 08:23:40 10° WSW 08:46:13 58° S 09:02:04 10° E daylight
21 Dec - 10:50:10 10° W 11:10:05 51° SSW 11:22:04 10° SE daylight
21 Dec - 13:18:41 10° W 13:30:45 25° SW 13:38:45 10° S daylight
22 Dec - 04:03:33 10° S 04:18:57 25° SE 04:34:53 10° E visible
22 Dec - 06:21:10 10° SW 06:42:25 48° SSE 07:00:57 10° E visible
22 Dec - 08:44:50 10° WSW 09:07:26 59° S 09:23:00 10° ESE daylight
22 Dec - 11:11:45 10° W 11:30:54 47° SSW 11:42:32 10° SE daylight
22 Dec - 13:41:15 10° W 13:50:54 19° SW 13:57:52 10° S daylight
23 Dec - 04:22:20 10° SSW 04:39:29 31° SE 04:57:16 10° E visible
23 Dec - 06:41:40 10° SW 07:03:31 53° SSE 07:22:12 10° E visible
23 Dec - 09:06:07 10° WSW 09:28:37 59° S 09:43:52 10° ESE daylight
23 Dec - 11:33:26 10° W 11:51:35 41° SSW 12:02:49 10° SSE daylight
23 Dec - 14:04:55 10° W 14:10:55 13° SW 14:15:49 10° SSW daylight
24 Dec - 02:31:25 10° SE 02:38:29 13° ESE 02:45:59 10° ESE visible
24 Dec - 04:41:45 10° SSW 05:00:07 37° SE 05:19:11 10° E visible
24 Dec - 07:02:24 10° WSW 07:24:42 57° SSE 07:43:21 10° E visible
24 Dec - 09:27:30 10° W 09:49:44 57° SSW 10:04:38 10° ESE daylight
24 Dec - 11:55:15 10° W 12:12:05 35° SW 12:22:52 10° SSE daylight
25 Dec - 02:47:02 10° SSE 02:58:38 18° SE 03:11:34 10° E visible
25 Dec - 05:01:36 10° SSW 05:20:54 43° SSE 05:40:49 10° E visible
25 Dec - 07:23:20 10° WSW 07:45:56 59° S 08:04:26 10° E daylight
25 Dec - 09:48:58 10° W 10:10:46 54° SSW 10:25:17 10° SE daylight
25 Dec - 12:17:18 10° W 12:32:26 29° SW 12:42:35 10° S daylight
26 Dec - 03:04:55 10° S 03:18:53 24° SE 03:34:56 10° E visible
26 Dec - 05:21:48 10° SW 05:41:49 49° SSE 06:02:16 10° E visible
26 Dec - 07:44:25 10° WSW 08:07:12 61° S 08:25:26 10° ESE daylight
26 Dec - 10:10:30 10° W 10:31:41 50° SSW 10:45:47 10° SE daylight
26 Dec - 12:39:45 10° W 12:52:37 23° SW 13:01:48 10° S daylight
